Terminal Aerodrome Forecast
Issued by NWS Rapid City, SD

Home | Current Version | Previous Version | Graphics & Text | Print | Product List | Glossary On
Versions: 1 2 3 4 5 6 7 8 9 10 11 12 13 14 15 16 17 18 19 20 21 22 23 24 25 26 27 28 29 30 31 32 33
546
FTUS43 KUNR 111258 CCA
TAFRAP
TAF COR
KRAP 111258Z 1113/1212 13005KT 1/2SM FZFG OVC001
     FM111600 33008KT P6SM OVC100
     FM111800 34023G33KT P6SM BKN050 OVC100
     FM120100 33011KT P6SM OVC050
     FM120600 34005KT P6SM OVC020
     FM120900 03006KT 1/2SM FG OVC007=

USA.gov is the U.S. government's official web portal to all federal, state and local government web resources and services.